GW1050 Weather Reports


time (UTC)temp
C
wind
direction
speed
KPH
gust
KPH
rain 1hr
cm
rain 24hr
cm
rain mn
cm
humidity
%
barometer
mb
20260507231727 15 198 3.2 14.5 0.00 0.00 0.00 44 1014.9
20260507231224 15 147 8.0 19.3 0.00 0.00 0.00 44 1015.2
20260507230721 15 302 6.4 14.5 0.00 0.00 0.00 43 1015.0
20260507230219 15 359 11.3 19.3 0.00 0.00 0.00 42 1014.9
20260507225717 15 241 1.6 14.5 0.00 0.00 0.00 43 1014.8
20260507225214 15 153 4.8 11.3 0.00 0.00 0.00 42 1014.8
20260507224710 15 351 6.4 14.5 0.00 0.00 0.00 42 1014.8
20260507224207 16 7 8.0 14.5 0.00 0.00 0.00 41 1014.7
20260507223703 15 164 4.8 11.3 0.00 0.00 0.00 41 1014.7
20260507223200 15 354 11.3 19.3 0.00 0.00 0.00 41 1014.6
20260507222657 15 199 12.9 22.5 0.00 0.00 0.00 41 1014.4
20260507222153 15 190 8.0 11.3 0.00 0.00 0.00 40 1014.8
20260507221650 16 176 11.3 22.5 0.00 0.00 0.00 40 1014.5
20260507221146 17 326 6.4 19.3 0.00 0.00 0.00 39 1014.4
20260507220643 16 213 6.4 19.3 0.00 0.00 0.00 39 1014.2
20260507220141 16 169 3.2 11.3 0.00 0.00 0.00 39 1014.4
20260507215637 16 248 8.0 11.3 0.00 0.00 0.00 40 1014.2
20260507215135 16 323 8.0 14.5 0.00 0.00 0.00 41 1014.0
20260507214632 16 202 6.4 22.5 0.00 0.00 0.00 39 1014.2
20260507214128 16 226 4.8 22.5 0.00 0.00 0.00 40 1014.2
20260507213624 16 329 9.7 22.5 0.00 0.00 0.00 40 1014.0
20260507213122 16 300 20.9 29.0 0.00 0.00 0.00 39 1014.1
20260507212617 16 141 14.5 25.7 0.00 0.00 0.00 39 1014.0
20260507212114 16 171 3.2 11.3 0.00 0.00 0.00 40 1014.2
20260507211611 16 306 9.7 19.3 0.00 0.00 0.00 41 1014.1
20260507211107 16 278 12.9 19.3 0.00 0.00 0.00 41 1014.0
20260507210605 16 302 4.8 11.3 0.00 0.00 0.00 42 1014.1
20260507205558 16 275 8.0 11.3 0.00 0.00 0.00 40 1014.0
20260507205054 16 324 12.9 29.0 0.00 0.00 0.00 41 1013.9
20260507204550 16 244 6.4 14.5 0.00 0.00 0.00 41 1013.9
20260507204048 16 178 8.0 14.5 0.00 0.00 0.00 40 1014.0
20260507203546 16 245 6.4 11.3 0.00 0.00 0.00 40 1014.0
20260507203043 16 243 4.8 14.5 0.00 0.00 0.00 41 1013.7
20260507202538 16 317 9.7 14.5 0.00 0.00 0.00 41 1013.8
20260507202035 16 219 11.3 19.3 0.00 0.00 0.00 40 1014.0
20260507201531 16 157 3.2 8.0 0.00 0.00 0.00 39 1014.0
20260507201027 17 258 9.7 22.5 0.00 0.00 0.00 41 1013.8
20260507200522 17 184 3.2 19.3 0.00 0.00 0.00 38 1014.2
20260507200019 18 305 14.5 25.7 0.00 0.00 0.00 39 1014.1
20260507195516 17 157 9.7 14.5 0.00 0.00 0.00 39 1014.2
20260507195014 17 309 11.3 29.0 0.00 0.00 0.00 40 1014.5
20260507194510 17 282 16.1 37.0 0.00 0.00 0.00 40 1014.6
20260507194006 18 270 8.0 19.3 0.00 0.00 0.00 39 1014.4
20260507193503 17 323 11.3 22.5 0.00 0.00 0.00 44 1014.5
20260507193000 16 149 8.0 11.3 0.00 0.00 0.00 42 1014.7
20260507192456 17 172 4.8 19.3 0.00 0.00 0.00 43 1014.5
20260507191953 17 213 6.4 11.3 0.00 0.00 0.00 45 1014.6
20260507191449 17 144 4.8 14.5 0.00 0.00 0.00 45 1014.5
20260507190946 17 264 9.7 19.3 0.00 0.00 0.00 44 1014.7
20260507190443 17 187 1.6 19.3 0.00 0.00 0.00 44 1014.6
20260507185942 17 253 8.0 14.5 0.00 0.00 0.00 43 1014.5
20260507185439 17 219 8.0 19.3 0.00 0.00 0.00 43 1014.6
20260507184936 17 341 12.9 14.5 0.00 0.00 0.00 44 1014.5
20260507184434 16 114 6.4 14.5 0.00 0.00 0.00 43 1014.8
20260507183931 16 226 9.7 19.3 0.00 0.00 0.00 43 1015.0
20260507183428 16 325 14.5 19.3 0.00 0.00 0.00 46 1014.8
20260507182925 16 186 4.8 29.0 0.00 0.00 0.00 46 1015.0
20260507182421 16 126 6.4 8.0 0.00 0.00 0.00 48 1014.9
20260507181917 16 168 3.2 14.5 0.00 0.00 0.00 47 1015.0
20260507181413 16 177 8.0 11.3 0.00 0.00 0.00 48 1014.9
20260507180910 16 262 8.0 22.5 0.00 0.00 0.00 47 1015.0
20260507180407 16 154 3.2 11.3 0.00 0.00 0.00 49 1015.0
20260507175903 15 276 9.7 14.5 0.00 0.00 0.00 49 1015.1
20260507175400 16 313 9.7 11.3 0.00 0.00 0.00 47 1015.1
20260507174857 15 184 3.2 19.3 0.00 0.00 0.00 48 1015.3
20260507174354 15 188 9.7 19.3 0.00 0.00 0.00 47 1015.2
20260507173852 16 280 12.9 14.5 0.00 0.00 0.00 46 1015.5
20260507173349 15 294 4.8 11.3 0.00 0.00 0.00 50 1015.4
20260507172845 15 141 8.0 19.3 0.00 0.00 0.00 46 1015.5
20260507172342 15 296 8.0 19.3 0.00 0.00 0.00 47 1015.6
20260507171838 15 209 6.4 29.0 0.00 0.00 0.00 47 1015.4
20260507171335 16 216 8.0 25.7 0.00 0.00 0.00 46 1015.7
20260507170832 15 174 4.8 11.3 0.00 0.00 0.00 44 1015.6
20260507170329 15 136 8.0 19.3 0.00 0.00 0.00 46 1015.8
20260507165824 15 221 4.8 25.7 0.00 0.00 0.00 47 1015.7
20260507165320 15 162 12.9 19.3 0.00 0.00 0.00 46 1016.0
20260507164817 16 246 6.4 29.0 0.00 0.00 0.00 46 1015.7
20260507164314 15 191 3.2 11.3 0.00 0.00 0.00 45 1016.1
20260507163811 16 163 3.2 19.3 0.00 0.00 0.00 45 1015.9
20260507163309 15 263 6.4 19.3 0.00 0.00 0.00 49 1015.9
20260507162804 15 276 14.5 22.5 0.00 0.00 0.00 49 1016.1
20260507162300 16 172 6.4 19.3 0.00 0.00 0.00 47 1016.0
20260507161758 15 267 1.6 14.5 0.00 0.00 0.00 47 1016.2
20260507161254 15 204 9.7 14.5 0.00 0.00 0.00 45 1016.2
20260507160750 15 176 3.2 14.5 0.00 0.00 0.00 49 1016.1
20260507160247 15 173 4.8 11.3 0.00 0.00 0.00 49 1016.2
20260507155743 13 194 3.2 14.5 0.00 0.00 0.00 48 1016.4
20260507155239 14 286 12.9 19.3 0.00 0.00 0.00 49 1016.4
20260507154735 15 275 6.4 11.3 0.00 0.00 0.00 49 1016.4
20260507154233 14 112 6.4 11.3 0.00 0.00 0.00 49 1016.4
20260507153729 15 179 8.0 11.3 0.00 0.00 0.00 49 1016.6
20260507153226 14 317 11.3 14.5 0.00 0.00 0.00 48 1016.4
20260507152722 13 161 3.2 19.3 0.00 0.00 0.00 49 1016.5
20260507152219 13 168 3.2 19.3 0.00 0.00 0.00 50 1016.4
20260507151715 15 163 0.0 14.5 0.00 0.00 0.00 48 1016.4
20260507151211 15 223 3.2 8.0 0.00 0.00 0.00 45 1016.5
20260507150708 15 219 11.3 19.3 0.00 0.00 0.00 48 1016.9
20260507150205 13 186 6.4 11.3 0.00 0.00 0.00 51 1016.9
20260507145701 13 298 14.5 22.5 0.00 0.00 0.00 51 1016.8
20260507145158 13 254 4.8 8.0 0.00 0.00 0.00 50 1017.0
20260507144654 13 155 6.4 22.5 0.00 0.00 0.00 49 1017.0
20260507144153 13 201 8.0 14.5 0.00 0.00 0.00 52 1017.2
20260507143649 13 145 4.8 8.0 0.00 0.00 0.00 51 1017.1
20260507143146 13 162 0.0 3.2 0.00 0.00 0.00 56 1017.2
20260507142642 13 284 1.6 14.5 0.00 0.00 0.00 51 1017.4
20260507142139 13 161 1.6 11.3 0.00 0.00 0.00 52 1017.2
20260507141635 13 12 4.8 11.3 0.00 0.00 0.00 52 1017.4
20260507141132 13 161 4.8 11.3 0.00 0.00 0.00 56 1017.5
20260507140628 13 184 3.2 8.0 0.00 0.00 0.00 57 1017.6
20260507140126 13 251 9.7 11.3 0.00 0.00 0.00 57 1017.5
20260507135623 13 162 1.6 14.5 0.00 0.00 0.00 58 1017.8
20260507135120 13 158 1.6 8.0 0.00 0.00 0.00 57 1017.8
20260507134616 13 207 1.6 3.2 0.00 0.00 0.00 58 1017.8
20260507134113 13 161 3.2 8.0 0.00 0.00 0.00 60 1017.8
20260507133609 13 200 6.4 11.3 0.00 0.00 0.00 61 1017.6
20260507133106 13 218 4.8 11.3 0.00 0.00 0.00 60 1017.9
20260507132603 13 161 1.6 8.0 0.00 0.00 0.00 60 1017.9
20260507132059 13 153 0.0 3.2 0.00 0.00 0.00 65 1018.0
20260507131556 12 163 0.0 3.2 0.00 0.00 0.00 67 1017.9
20260507131054 12 171 1.6 3.2 0.00 0.00 0.00 68 1017.9
20260507130550 12 163 1.6 3.2 0.00 0.00 0.00 67 1017.9
20260507130049 11 163 1.6 3.2 0.00 0.00 0.00 73 1017.9
20260507125547 11 153 0.0 8.0 0.00 0.00 0.00 75 1018.1
20260507125044 11 171 0.0 3.2 0.00 0.00 0.00 78 1017.9
20260507124540 10 155 0.0 3.2 0.00 0.00 0.00 79 1018.0
20260507124038 10 149 3.2 3.2 0.00 0.00 0.00 79 1018.3
20260507123536 10 154 0.0 3.2 0.00 0.00 0.00 82 1018.0
20260507123033 10 148 0.0 3.2 0.00 0.00 0.00 82 1018.2
20260507122528 9 157 1.6 3.2 0.00 0.00 0.00 83 1018.3
20260507122024 8 155 0.0 0.0 0.00 0.00 0.00 87 1018.2
20260507121520 8 161 0.0 0.0 0.00 0.00 0.00 89 1018.1
20260507121016 7 155 0.0 0.0 0.00 0.00 0.00 92 1018.1
20260507120512 7 148 0.0 0.0 0.00 0.00 0.00 95 1018.1
20260507120009 6 164 0.0 0.0 0.00 0.00 0.00 96 1018.1
20260507115505 6 156 0.0 0.0 0.00 0.00 0.00 97 1018.1
20260507115001 5 159 0.0 0.0 0.00 0.00 0.00 97 1018.0
20260507114457 4 157 0.0 0.0 0.00 0.00 0.00 97 1018.1
20260507113955 4 155 0.0 3.2 0.00 0.00 0.00 97 1018.1
20260507113452 4 152 0.0 3.2 0.00 0.00 0.00 97 1018.1
20260507112949 4 159 0.0 0.0 0.00 0.00 0.00 97 1017.9
20260507112446 3 150 0.0 3.2 0.00 0.00 0.00 97 1018.0
20260507111943 3 153 0.0 0.0 0.00 0.00 0.00 97 1018.0
20260507111441 3 155 0.0 0.0 0.00 0.00 0.00 97 1017.9
20260507110937 3 160 0.0 0.0 0.00 0.00 0.00 97 1017.8
20260507110433 3 163 0.0 0.0 0.00 0.00 0.00 97 1017.8
20260507105929 3 156 0.0 0.0 0.00 0.00 0.00 96 1017.8
20260507105427 3 152 0.0 0.0 0.00 0.00 0.00 96 1017.7
20260507104923 3 162 0.0 0.0 0.00 0.00 0.00 96 1017.8
20260507104420 3 152 0.0 0.0 0.00 0.00 0.00 96 1017.8
20260507103915 3 157 0.0 0.0 0.00 0.00 0.00 96 1017.5
20260507103413 3 160 0.0 0.0 0.00 0.00 0.00 96 1017.6
20260507102909 3 164 0.0 0.0 0.00 0.00 0.00 96 1017.4
20260507102406 3 161 0.0 0.0 0.00 0.00 0.00 96 1017.2
20260507101902 3 161 0.0 0.0 0.00 0.00 0.00 96 1017.6
20260507101402 3 159 0.0 0.0 0.00 0.00 0.00 95 1017.5
20260507100859 3 183 0.0 0.0 0.00 0.00 0.00 95 1017.4
20260507100357 3 163 0.0 0.0 0.00 0.00 0.00 95 1017.4
20260507095855 3 157 0.0 0.0 0.00 0.00 0.00 95 1017.3
20260507095351 3 157 0.0 0.0 0.00 0.00 0.00 95 1017.5
20260507094849 3 164 0.0 0.0 0.00 0.00 0.00 95 1017.3
20260507094345 3 161 0.0 0.0 0.00 0.00 0.00 94 1017.3
20260507093842 3 183 0.0 0.0 0.00 0.00 0.00 94 1017.4
20260507093340 3 151 0.0 3.2 0.00 0.00 0.00 94 1017.2
20260507092838 3 159 0.0 0.0 0.00 0.00 0.00 94 1017.2
20260507092334 3 162 0.0 0.0 0.00 0.00 0.00 94 1017.4
20260507091831 3 150 1.6 3.2 0.00 0.00 0.00 94 1017.3
20260507091327 3 151 0.0 3.2 0.00 0.00 0.00 93 1017.4
20260507090823 3 153 1.6 3.2 0.00 0.00 0.00 93 1017.6
20260507090319 3 159 0.0 0.0 0.00 0.00 0.00 93 1017.5
20260507085816 4 159 0.0 3.2 0.00 0.00 0.00 93 1017.3
20260507085313 4 161 0.0 3.2 0.00 0.00 0.00 92 1017.4
20260507084811 4 159 1.6 3.2 0.00 0.00 0.00 92 1017.4
20260507084307 4 162 0.0 0.0 0.00 0.00 0.00 92 1017.5
20260507083804 4 157 0.0 0.0 0.00 0.00 0.00 92 1017.4
20260507083301 4 146 3.2 3.2 0.00 0.00 0.00 92 1017.3
20260507082757 4 162 0.0 3.2 0.00 0.00 0.00 92 1017.3
20260507082253 5 163 0.0 0.0 0.00 0.00 0.00 92 1017.5
20260507081750 5 162 0.0 3.2 0.00 0.00 0.00 91 1017.5
20260507081246 5 163 1.6 3.2 0.00 0.00 0.00 91 1017.5
20260507080743 5 133 0.0 3.2 0.00 0.00 0.00 91 1017.4
20260507080239 5 160 0.0 0.0 0.00 0.00 0.00 91 1017.5
20260507075734 5 152 0.0 0.0 0.00 0.00 0.00 91 1017.4
20260507075231 5 183 0.0 0.0 0.00 0.00 0.00 91 1017.4
20260507074727 5 153 0.0 0.0 0.00 0.00 0.00 91 1017.3
20260507074226 5 157 0.0 0.0 0.00 0.00 0.00 90 1017.4
20260507073722 5 156 0.0 0.0 0.00 0.00 0.00 90 1017.4
20260507073218 5 161 0.0 0.0 0.00 0.00 0.00 89 1017.5
20260507072716 5 149 3.2 3.2 0.00 0.00 0.00 89 1017.5
20260507072213 5 166 0.0 3.2 0.00 0.00 0.00 88 1017.5
20260507071711 6 157 3.2 3.2 0.00 0.00 0.00 89 1017.4
20260507071207 6 157 1.6 3.2 0.00 0.00 0.00 88 1017.4
20260507070704 6 149 1.6 3.2 0.00 0.00 0.00 87 1017.4
20260507070201 6 154 0.0 3.2 0.00 0.00 0.00 87 1017.2
20260507065657 6 155 0.0 3.2 0.00 0.00 0.00 87 1017.5
20260507065154 6 143 0.0 3.2 0.00 0.00 0.00 86 1017.4
20260507064652 7 151 1.6 3.2 0.00 0.00 0.00 86 1017.4
20260507064150 7 155 3.2 3.2 0.00 0.00 0.00 85 1017.3
20260507063647 7 147 3.2 3.2 0.00 0.00 0.00 85 1017.4
20260507063144 7 145 3.2 3.2 0.00 0.00 0.00 84 1017.4
20260507062641 7 155 0.0 3.2 0.00 0.00 0.00 83 1017.4
20260507062139 8 155 3.2 3.2 0.00 0.00 0.00 82 1017.3
20260507061636 8 143 1.6 3.2 0.00 0.00 0.00 81 1017.4
20260507061134 8 157 0.0 3.2 0.00 0.00 0.00 81 1017.5
20260507060632 8 151 0.0 3.2 0.00 0.00 0.00 80 1017.6
20260507060128 8 158 0.0 3.2 0.00 0.00 0.00 80 1017.5
20260507055624 8 150 3.2 3.2 0.00 0.00 0.00 80 1017.7
20260507055120 8 149 1.6 8.0 0.00 0.00 0.00 79 1017.6
20260507054616 8 127 4.8 8.0 0.00 0.00 0.00 76 1017.8
20260507054113 8 158 1.6 3.2 0.00 0.00 0.00 79 1018.1
20260507053611 9 148 1.6 3.2 0.00 0.00 0.00 80 1018.1
20260507053109 8 154 0.0 3.2 0.00 0.00 0.00 78 1018.0
20260507052607 8 147 3.2 3.2 0.00 0.00 0.00 80 1018.3
20260507052103 8 161 0.0 3.2 0.00 0.00 0.00 81 1017.8
20260507051601 8 147 3.2 3.2 0.00 0.00 0.00 81 1018.1
20260507051057 8 148 1.6 3.2 0.00 0.00 0.00 82 1018.0
20260507050554 8 152 3.2 3.2 0.00 0.00 0.00 82 1018.0
20260507050050 8 131 4.8 8.0 0.00 0.00 0.00 81 1017.9
20260507045547 8 183 1.6 3.2 0.00 0.00 0.00 81 1017.9
20260507045045 8 145 3.2 3.2 0.00 0.00 0.00 82 1018.1
20260507044541 8 161 0.0 3.2 0.00 0.00 0.00 82 1018.0
20260507044038 8 162 0.0 3.2 0.00 0.00 0.00 82 1018.1
20260507043534 8 133 0.0 3.2 0.00 0.00 0.00 82 1017.9
20260507043032 9 153 0.0 3.2 0.00 0.00 0.00 83 1018.0
20260507042527 9 137 3.2 3.2 0.00 0.00 0.00 82 1017.8
20260507042023 9 154 0.0 3.2 0.00 0.00 0.00 83 1017.8
20260507041520 9 144 1.6 3.2 0.00 0.00 0.00 82 1018.0
20260507041017 9 160 1.6 3.2 0.00 0.00 0.00 82 1017.9
20260507040513 9 139 0.0 8.0 0.00 0.00 0.00 83 1018.0
20260507040009 9 145 3.2 3.2 0.00 1.88 1.88 82 1017.9
20260507035506 9 152 1.6 3.2 0.00 1.88 1.88 83 1017.8
20260507035002 9 157 1.6 3.2 0.00 1.88 1.88 82 1017.8
20260507034459 9 164 0.0 3.2 0.00 1.88 1.88 82 1017.8
20260507033957 9 153 3.2 3.2 0.00 1.88 1.88 83 1017.7
20260507033454 9 147 0.0 3.2 0.00 1.88 1.88 83 1018.0
20260507032952 9 138 1.6 3.2 0.00 1.88 1.88 82 1017.9
20260507032448 9 157 1.6 3.2 0.00 1.88 1.88 82 1017.9
20260507031945 9 153 3.2 3.2 0.00 1.88 1.88 81 1017.8
20260507031441 10 145 3.2 3.2 0.00 1.88 1.88 82 1017.7
20260507030938 10 162 0.0 0.0 0.00 1.88 1.88 81 1017.4
20260507030435 10 146 3.2 3.2 0.00 1.88 1.88 81 1017.4
20260507025932 10 152 3.2 3.2 0.00 1.88 1.88 80 1017.3
20260507025430 10 162 0.0 3.2 0.00 1.88 1.88 79 1017.4
20260507024927 10 154 1.6 8.0 0.00 1.88 1.88 78 1017.3
20260507024424 10 152 1.6 3.2 0.00 1.88 1.88 78 1017.2
20260507023920 10 154 0.0 0.0 0.00 1.88 1.88 76 1017.5
20260507023417 10 140 3.2 3.2 0.00 1.88 1.88 75 1017.3
20260507022914 10 150 1.6 8.0 0.00 1.88 1.88 73 1017.2
20260507022411 10 180 0.0 3.2 0.00 1.88 1.88 71 1017.2
20260507021907 10 142 1.6 3.2 0.00 1.88 1.88 77 1017.1
20260507021402 10 155 0.0 3.2 0.00 1.88 1.88 74 1017.3
20260507020900 11 137 3.2 3.2 0.00 1.88 1.88 74 1017.1
20260507020356 11 159 1.6 3.2 0.00 1.88 1.88 72 1017.1
20260507015854 11 153 3.2 8.0 0.00 1.88 1.88 72 1017.1
20260507015352 11 151 1.6 8.0 0.00 1.88 1.88 70 1017.1
20260507014848 11 156 0.0 3.2 0.00 1.88 1.88 76 1016.9
20260507014344 11 147 1.6 8.0 0.00 1.88 1.88 71 1016.7
20260507013841 11 162 0.0 3.2 0.00 1.88 1.88 77 1016.7
20260507013338 11 142 1.6 3.2 0.00 1.88 1.88 72 1016.7
20260507012836 11 148 1.6 8.0 0.00 1.88 1.88 67 1016.4
20260507012331 11 138 3.2 3.2 0.00 1.88 1.88 66 1016.5
20260507011829 11 151 6.4 8.0 0.00 1.88 1.88 66 1016.5
20260507011326 11 116 8.0 11.3 0.00 1.88 1.88 66 1016.5
20260507010825 11 89 9.7 19.3 0.00 1.88 1.88 69 1016.1
20260507010321 12 50 9.7 14.5 0.00 1.88 1.88 65 1016.3
20260507005819 11 161 3.2 14.5 0.00 1.88 1.88 66 1016.7
20260507005316 12 163 4.8 19.3 0.00 1.88 1.88 64 1016.7
20260507004812 12 143 8.0 14.5 0.00 1.88 1.88 65 1016.6
20260507004310 12 155 4.8 11.3 0.00 1.88 1.88 67 1016.6
20260507003806 12 139 4.8 14.5 0.00 1.88 1.88 74 1016.8
20260507003301 11 168 4.8 8.0 0.00 1.88 1.88 80 1016.8
20260507002757 11 155 3.2 3.2 0.00 1.88 1.88 85 1016.6
20260507002253 11 157 1.6 8.0 0.00 1.88 1.88 85 1016.7
20260507001751 11 128 3.2 3.2 0.00 1.88 1.88 86 1016.9
20260507001248 11 155 0.0 3.2 0.00 1.88 1.88 86 1017.0
20260507000744 11 159 0.0 0.0 0.00 1.88 1.88 85 1016.9
20260507000240 11 159 4.8 8.0 0.00 1.88 1.88 83 1016.5
20260506235737 12 163 0.0 3.2 0.00 1.88 1.88 83 1016.4
20260506235232 12 161 0.0 3.2 0.00 1.88 1.88 81 1016.6
20260506234730 12 166 0.0 0.0 0.00 1.88 1.88 75 1016.4
20260506234227 12 90 0.0 3.2 0.00 1.88 1.88 71 1016.3
20260506233724 12 164 0.0 0.0 0.00 1.88 1.88 70 1016.3
20260506233220 12 159 0.0 3.2 0.00 1.88 1.88 70 1016.4
20260506232717 13 179 3.2 8.0 0.00 1.88 1.88 69 1016.3
20260506232212 13 165 3.2 8.0 0.00 1.88 1.88 69 1016.2